Location: São Paulo
(23.5507°S, 46.6334°W)
Time: 21:20:41
(UTC-03:00)

Hubble Space Telescope - Pass Details

Date: 02 August 2021
Orbit: 535 x 539 km, 28.5° (Epoch: 23 September)

Event Time Altitude Azimuth Distance (km) Brightness Sun altitude
Exits shadow 04:04:35 10° 113° (ESE) 1,769 4.0 -35.8°
Drops below altitude 10° 04:04:39 10° 113° (ESE) 1,794 4.0 -35.8°
Sets 04:06:58 0° 108° (ESE) 2,687 5.2 -35.3°
